sat.trackr.live / text

‹ back to catalog

STARLINK-2620

NORAD 48453 · 2021-040AB

PAYLOAD ACTIVE UNKNOWN

§ Identity

Operator
Country
US
Launch date
2021-05-09
Launch site
AFETR
Launch vehicle
Mass (kg)
RCS (m²)

Purposes: comms

External: N2YO · Heavens-Above · Gunter

§ Orbital elements

Epoch: 2026-05-24T09:42:29.872224Z

Period
94.01 min
Inclination
53.1593°
Eccentricity
0.0001182
Mean motion
15.31718798 rev/d
Perigee alt
469.9 km
Apogee alt
471.5 km
Semi-major
6,848.8 km
B*
7.4968e-5
RAAN
185.9508°
Arg perigee
78.2455°
Mean anomaly
281.8679°
Rev number
27,828

§ Raw data

STARLINK-26201 48453U 21040AB  26144.40451241  .00001963  00000+0  74968-4 0  99952 48453  53.1593 185.9508 0001182  78.2455 281.8679 15.31718798278289

JSON: /api/v1/satellites/48453 · /tle

For live sub-satellite position, see the globe view (requires WebGL).

§ Visibility from observer

Set your observer location to see the next 7 days of passes ≥ 10°. The values pass through the URL so the page stays shareable.

No JS? Fill the form by hand. The geolocation button needs JavaScript.